NV115 YMEN-YFLI

Flight info

Callsign NV115
Flight time 0h 31m
Altitude 19000
Route ESDAN W382 MB W562 NUNPA
Aircraft C25B/M-SDE2E3FGHRWXY/LB1

Departure

Time 2026-05-05 09:06
Airport Melbourne Essendon Airport (YMEN)

Arrival

Time 2026-05-05 09:37
Airport Flinders Island Airport (YFLI)
Time Latitude Longitude Altitude Speed Heading
2026-05-05 09:00 -37.72305 144.89855 278 ft 0 kts 328°
2026-05-05 09:04 -37.72259 144.89848 279 ft 17 kts
2026-05-05 09:05 -37.72174 144.89899 281 ft 24 kts 61°
2026-05-05 09:05 -37.72163 144.90071 284 ft 13 kts 118°
2026-05-05 09:05 -37.72180 144.90081 283 ft 0 kts 176°
2026-05-05 09:06 -37.72182 144.90081 283 ft 3 kts 176°
2026-05-05 09:06 -37.72610 144.90100 275 ft 131 kts 178°
2026-05-05 09:06 -37.73809 144.90139 954 ft 211 kts 179°
2026-05-05 09:06 -37.75426 144.90229 2415 ft 246 kts 171°
2026-05-05 09:07 -37.76892 144.91284 4605 ft 247 kts 134°
2026-05-05 09:07 -37.77703 144.93190 6851 ft 248 kts 111°
2026-05-05 09:07 -37.78340 144.95256 8570 ft 257 kts 127°
2026-05-05 09:07 -37.79640 144.96800 10239 ft 261 kts 149°
2026-05-05 09:08 -37.81227 144.97912 11950 ft 261 kts 159°
2026-05-05 09:08 -37.82880 144.98861 13775 ft 262 kts 157°
2026-05-05 09:08 -37.84506 144.99966 15327 ft 269 kts 154°
2026-05-05 09:08 -37.86173 145.01134 16820 ft 277 kts 154°
2026-05-05 09:09 -37.87887 145.02324 18295 ft 284 kts 154°
2026-05-05 09:09 -37.89690 145.03551 19186 ft 312 kts 154°
2026-05-05 09:09 -37.91752 145.04958 19241 ft 360 kts 154°
2026-05-05 09:09 -37.94080 145.06561 19248 ft 400 kts 153°
2026-05-05 09:10 -37.96563 145.08332 19244 ft 409 kts 150°
2026-05-05 09:10 -37.98793 145.10591 19243 ft 412 kts 139°
2026-05-05 09:10 -38.00803 145.13183 19241 ft 415 kts 135°
2026-05-05 09:10 -38.02832 145.15864 19241 ft 431 kts 135°
2026-05-05 09:11 -38.04901 145.18615 19242 ft 433 kts 135°
2026-05-05 09:11 -38.07009 145.21386 19239 ft 437 kts 136°
2026-05-05 09:11 -38.09127 145.24180 19240 ft 439 kts 135°
2026-05-05 09:11 -38.11235 145.26989 19244 ft 439 kts 135°
2026-05-05 09:12 -38.13355 145.29793 19239 ft 440 kts 135°
2026-05-05 09:12 -38.15479 145.32612 19240 ft 441 kts 135°
2026-05-05 09:12 -38.17578 145.35391 19240 ft 440 kts 135°
2026-05-05 09:12 -38.19687 145.38204 19241 ft 439 kts 135°
2026-05-05 09:13 -38.21799 145.41006 19246 ft 439 kts 135°
2026-05-05 09:13 -38.23904 145.43813 19246 ft 438 kts 135°
2026-05-05 09:13 -38.26010 145.46614 19246 ft 438 kts 135°
2026-05-05 09:13 -38.28107 145.49414 19238 ft 438 kts 135°
2026-05-05 09:14 -38.30212 145.52223 19240 ft 437 kts 135°
2026-05-05 09:14 -38.32309 145.55024 19241 ft 438 kts 135°
2026-05-05 09:14 -38.34411 145.57837 19241 ft 438 kts 135°
2026-05-05 09:14 -38.36514 145.60646 19240 ft 438 kts 135°
2026-05-05 09:15 -38.38612 145.63465 19240 ft 438 kts 135°
2026-05-05 09:15 -38.40688 145.66241 19240 ft 438 kts 136°
2026-05-05 09:15 -38.42788 145.69062 19237 ft 438 kts 135°
2026-05-05 09:15 -38.44885 145.71882 19238 ft 438 kts 136°
2026-05-05 09:16 -38.46990 145.74705 19238 ft 438 kts 135°
2026-05-05 09:16 -38.49084 145.77528 19237 ft 438 kts 135°
2026-05-05 09:16 -38.51184 145.80354 19236 ft 438 kts 135°
2026-05-05 09:16 -38.53283 145.83189 19236 ft 438 kts 136°
2026-05-05 09:17 -38.55388 145.86021 19231 ft 439 kts 136°
2026-05-05 09:17 -38.57481 145.88856 19231 ft 439 kts 135°
2026-05-05 09:17 -38.59584 145.91691 19231 ft 439 kts 136°
2026-05-05 09:17 -38.61678 145.94531 19231 ft 439 kts 135°
2026-05-05 09:18 -38.63776 145.97366 19234 ft 439 kts 136°
2026-05-05 09:18 -38.65868 146.00206 19228 ft 439 kts 135°
2026-05-05 09:18 -38.67965 146.03048 19228 ft 439 kts 135°
2026-05-05 09:18 -38.70057 146.05891 19223 ft 439 kts 135°
2026-05-05 09:19 -38.72155 146.08741 19223 ft 439 kts 136°
2026-05-05 09:19 -38.74225 146.11561 19221 ft 439 kts 135°
2026-05-05 09:19 -38.76321 146.14413 19221 ft 440 kts 136°
2026-05-05 09:19 -38.78416 146.17263 19221 ft 440 kts 135°
2026-05-05 09:20 -38.80512 146.20132 19221 ft 440 kts 136°
2026-05-05 09:20 -38.82611 146.22989 19216 ft 440 kts 136°
2026-05-05 09:20 -38.84700 146.25853 19216 ft 440 kts 135°
2026-05-05 09:20 -38.86798 146.28716 19216 ft 440 kts 136°
2026-05-05 09:21 -38.88889 146.31583 19217 ft 440 kts 135°
2026-05-05 09:21 -38.90982 146.34450 19210 ft 440 kts 136°
2026-05-05 09:21 -38.93079 146.37324 19211 ft 441 kts 136°
2026-05-05 09:21 -38.95178 146.40209 19210 ft 441 kts 136°
2026-05-05 09:22 -38.97272 146.43087 19207 ft 441 kts 136°
2026-05-05 09:22 -38.99367 146.45970 19208 ft 441 kts 136°
2026-05-05 09:22 -39.01437 146.48812 19208 ft 441 kts 136°
2026-05-05 09:22 -39.03527 146.51704 19208 ft 441 kts 135°
2026-05-05 09:23 -39.05626 146.54591 19206 ft 441 kts 136°
2026-05-05 09:23 -39.07722 146.57491 19206 ft 441 kts 135°
2026-05-05 09:23 -39.09817 146.60380 19210 ft 441 kts 136°
2026-05-05 09:23 -39.11907 146.63277 19203 ft 442 kts 135°
2026-05-05 09:24 -39.14004 146.66176 19205 ft 442 kts 136°
2026-05-05 09:24 -39.16097 146.69080 19205 ft 442 kts 135°
2026-05-05 09:24 -39.18168 146.71952 19205 ft 442 kts 136°
2026-05-05 09:24 -39.20263 146.74860 19200 ft 442 kts 135°
2026-05-05 09:25 -39.22356 146.77770 19200 ft 442 kts 136°
2026-05-05 09:25 -39.24449 146.80678 19200 ft 442 kts 135°
2026-05-05 09:25 -39.26543 146.83600 19200 ft 442 kts 135°
2026-05-05 09:25 -39.28642 146.86519 19194 ft 443 kts 135°
2026-05-05 09:26 -39.30733 146.89443 19194 ft 443 kts 135°
2026-05-05 09:26 -39.32830 146.92363 19195 ft 443 kts 135°
2026-05-05 09:26 -39.34891 146.95253 19192 ft 443 kts 135°
2026-05-05 09:26 -39.36987 146.98177 19192 ft 443 kts 135°
2026-05-05 09:27 -39.39075 147.01108 19184 ft 443 kts 135°
2026-05-05 09:27 -39.41172 147.04040 19184 ft 443 kts 135°
2026-05-05 09:27 -39.43272 147.06990 18848 ft 451 kts 135°
2026-05-05 09:27 -39.45424 147.10006 18237 ft 461 kts 135°
2026-05-05 09:28 -39.47547 147.13005 17625 ft 433 kts 135°
2026-05-05 09:28 -39.49558 147.15838 17051 ft 428 kts 136°
2026-05-05 09:28 -39.51604 147.18701 16483 ft 434 kts 136°
2026-05-05 09:28 -39.52946 147.20597 16107 ft 427 kts 136°
2026-05-05 09:29 -39.55600 147.24342 15363 ft 425 kts 136°
2026-05-05 09:29 -39.57591 147.27161 14804 ft 421 kts 136°
2026-05-05 09:29 -39.59566 147.29947 14247 ft 418 kts 136°
2026-05-05 09:29 -39.60893 147.31822 13865 ft 415 kts 136°
2026-05-05 09:30 -39.63431 147.35423 13127 ft 402 kts 136°
2026-05-05 09:30 -39.64702 147.37220 12773 ft 397 kts 136°
2026-05-05 09:30 -39.66527 147.39814 12254 ft 391 kts 136°
2026-05-05 09:30 -39.68379 147.42428 11733 ft 400 kts 136°
2026-05-05 09:31 -39.70252 147.45092 11208 ft 398 kts 136°
2026-05-05 09:31 -39.72106 147.47730 10681 ft 393 kts 136°
2026-05-05 09:31 -39.73935 147.50348 9929 ft 387 kts 136°
2026-05-05 09:31 -39.75730 147.52863 9387 ft 373 kts 136°
2026-05-05 09:32 -39.77477 147.55374 8890 ft 381 kts 135°
2026-05-05 09:32 -39.79244 147.57944 8392 ft 384 kts 135°
2026-05-05 09:32 -39.81034 147.60473 7880 ft 373 kts 137°
2026-05-05 09:32 -39.82790 147.62944 7391 ft 370 kts 136°
2026-05-05 09:33 -39.84514 147.65416 6906 ft 368 kts 134°
2026-05-05 09:33 -39.86219 147.67893 6409 ft 366 kts 135°
2026-05-05 09:33 -39.87917 147.70310 5919 ft 356 kts 136°
2026-05-05 09:33 -39.89538 147.72632 5457 ft 344 kts 136°
2026-05-05 09:34 -39.91130 147.74916 5006 ft 336 kts 136°
2026-05-05 09:34 -39.92690 147.77153 4548 ft 331 kts 136°
2026-05-05 09:34 -39.94235 147.79373 4112 ft 329 kts 136°
2026-05-05 09:34 -39.95771 147.81583 3676 ft 329 kts 136°
2026-05-05 09:35 -39.97304 147.83789 3240 ft 326 kts 136°
2026-05-05 09:35 -40.00330 147.88146 2376 ft 322 kts 136°
2026-05-05 09:35 -40.01799 147.90309 1917 ft 313 kts 136°
2026-05-05 09:36 -40.03192 147.92358 1564 ft 295 kts 136°
2026-05-05 09:36 -40.04495 147.94266 1191 ft 269 kts 136°
2026-05-05 09:36 -40.05717 147.95825 834 ft 216 kts 146°
2026-05-05 09:36 -40.06758 147.96840 554 ft 164 kts 150°
2026-05-05 09:37 -40.07564 147.97610 359 ft 126 kts 150°
2026-05-05 09:37 -40.08242 147.98247 56 ft 113 kts 144°
2026-05-05 09:37 -40.08745 147.98723 24 ft 42 kts 144°
2026-05-05 09:37 -40.08884 147.98857 25 ft 24 kts 144°
2026-05-05 09:38 -40.08970 147.98946 28 ft 7 kts 196°
2026-05-05 09:38 -40.08906 147.98877 25 ft 29 kts 326°
2026-05-05 09:38 -40.08707 147.98689 21 ft 39 kts 323°
2026-05-05 09:38 -40.08478 147.98469 22 ft 42 kts 325°
2026-05-05 09:39 -40.08340 147.98332 23 ft 6 kts 71°
2026-05-05 09:39 -40.08354 147.98352 21 ft 0 kts 143°